Location: ?????????
(55.6553°N, 38.9075°E)
Time: 20:43:14
(UTC+00:00)

Exosat Rocket - Pass Details

Date: 18 October 2019
Orbit: 762 x 2513 km, 72.3° (Epoch: 20 November)

Event Time Altitude Azimuth Distance (km) Brightness Sun altitude
Exits shadow 00:26:50 68° 293° (WNW) 1,239 4.3 -29.9°
Maximum altitude 00:27:04 68° 305° (NW) 1,226 4.3 -29.9°
Drops below altitude 10° 00:33:06 10° 29° (NNE) 2,647 7.0 -29.1°
Sets 00:35:17 0° 32° (NNE) 3,470 7.8 -28.9°
